Preview of NWS' New Version of Forecast
This preview is not operational and should not be used for support decisions.

Regional Weather Roundup (RWR)

Issued by National Weather Service (NWS)

                            
000
ASUS45 KBOI 202010
RWRID 

IDAHO REGIONAL WEATHER ROUNDUP
NATIONAL WEATHER SERVICE BOISE ID
100 PM MST WED FEB 20 2019

NOTE: "FAIR" INDICATES FEW OR NO CLOUDS BELOW 12000 FEET
WITH NO SIGNIFICANT WEATHER AND/OR OBSTRUCTIONS TO VISIBILITY

IDZ012-014-202100-
SOUTHWEST IDAHO

  
CITY           SKY/WX    TMP DP  RH WIND       PRES   REMARKS
BOISE          LGT SNOW  32  28  85 W7        29.68F VSB 1   WCI  26  
CALDWELL       CLOUDY    34  29  82 NW6       29.71S WCI  29          
MOUNTAIN HOME  LGT SNOW  32  32 100 E3        29.68F VSB 5/8          
$$

IDZ016-017-202100-
SOUTHCENTRAL IDAHO

  
CITY           SKY/WX    TMP DP  RH WIND       PRES   REMARKS
BURLEY         LGT SNOW  29  22  75 SW12      29.64F WCI  19          
JEROME         CLOUDY    29  23  78 NE9       29.65F WCI  20          
TWIN FALLS     CLOUDY    31  20  63 CALM      29.65F                  
$$

IDZ019>023-202100-
SOUTHEAST IDAHO

  
CITY           SKY/WX    TMP DP  RH WIND       PRES   REMARKS
IDAHO FALLS    LGT SNOW  16  11  80 NW3       29.67S                  
POCATELLO      LGT SNOW  22  18  85 NW6       29.67S FOG     WCI  14  
REXBURG        LGT SNOW  17  12  80 W5        29.64F WCI  10          
$$

IDZ006-010-011-018-031-032-202100-
CENTRAL IDAHO MOUNTAINS

  
CITY           SKY/WX    TMP DP  RH WIND       PRES   REMARKS
MCCALL         FLURRIES  24  19  81 CALM      29.56S                  
HAILEY         PTSUNNY   23  16  74 SE8       29.60F WCI  14          
STANLEY          N/A     17   9  70 CALM      29.54F                  
SALMON         CLOUDY    30  18  60 W3        29.64F                  
CHALLIS        CLOUDY    25  14  63 N3        29.58F                  
$$

IDZ002-004-006-007-026-202100-
NORTHERN IDAHO

  
CITY           SKY/WX    TMP DP  RH WIND       PRES   REMARKS
LEWISTON       LGT SNOW  30  25  81 W7        29.77S WCI  23          
LOWELL           N/A     36  28  73 CALM      29.72F                  
COEUR D'ALENE  CLOUDY    28  20  71 N15       29.74S WCI  16          
MULLAN PASS    FLURRIES  16  12  84 VRB3      29.54R                  
$$